2024/02/06 00:00:00,328.7,-0.1
2024/02/06 00:10:00,136.5,-0.2
2024/02/06 00:20:00, 8.3,-0.2
2024/02/06 00:30:00, 8.3, 0.0
2024/02/06 00:40:00, 8.3,-0.1
2024/02/06 00:50:00, 8.3,-0.2
2024/02/06 01:00:00, 8.3,-0.3
2024/02/06 01:10:00, 8.3, 0.0
2024/02/06 01:20:00, 8.3, 0.0
2024/02/06 01:30:00, 8.3,-0.3
2024/02/06 01:40:00, 8.2, 0.0
2024/02/06 01:50:00, 8.2,-0.3
2024/02/06 02:00:00, 8.2,-0.1
2024/02/06 02:10:00, 8.1,-0.1
2024/02/06 02:20:00, 8.1,-0.1
2024/02/06 02:30:00, 8.1, 0.0
2024/02/06 02:40:00, 8.1, 0.0
2024/02/06 02:50:00, 8.1,-0.2
2024/02/06 03:00:00, 8.1, 0.0
2024/02/06 03:10:00, 8.1,-0.2
2024/02/06 03:20:00, 8.1,-0.2
2024/02/06 03:30:00, 8.0, 0.0
2024/02/06 03:40:00,48.0, 0.1
2024/02/06 03:50:00,329.2,-0.1
2024/02/06 04:00:00,329.6, 0.1
2024/02/06 04:10:00,232.8,-0.1
2024/02/06 04:20:00, 8.0, 0.0
2024/02/06 04:30:00, 8.0,-0.1
2024/02/06 04:40:00, 8.0, 0.1
2024/02/06 04:50:00, 8.0, 0.2
2024/02/06 05:00:00, 7.5, 0.3
2024/02/06 05:10:00,88.2, 0.2
2024/02/06 05:20:00, 7.8, 0.2
2024/02/06 05:30:00, 7.7, 0.2
2024/02/06 05:40:00, 7.6, 0.2
2024/02/06 05:50:00, 7.6, 0.4
2024/02/06 06:00:00, 7.6, 0.3
2024/02/06 06:10:00, 7.6, 0.0
2024/02/06 06:20:00, 7.7, 0.4
2024/02/06 06:30:00, 7.6, 0.3
2024/02/06 06:40:00, 7.6, 0.2
2024/02/06 06:50:00, 7.5, 0.0
2024/02/06 07:00:00, 7.5, 0.1
2024/02/06 07:10:00, 7.4, 0.0
2024/02/06 07:20:00, 7.5, 0.0
2024/02/06 07:30:00, 7.5,-0.2
2024/02/06 07:40:00, 7.6, 0.3
2024/02/06 07:50:00, 7.6,-0.1
2024/02/06 08:00:00, 7.7, 0.0
2024/02/06 08:10:00, 7.7, 0.3
2024/02/06 08:20:00, 7.7, 0.7
2024/02/06 08:30:00, 7.8, 0.7
2024/02/06 08:40:00, 7.7, 0.2
2024/02/06 08:50:00, 7.7, 0.6
2024/02/06 09:00:00, 7.7, 0.7
2024/02/06 09:10:00, 7.6, 0.9
2024/02/06 09:20:00, 7.7, 0.9
2024/02/06 09:30:00, 7.6, 0.9
2024/02/06 09:40:00, 7.6, 1.1
2024/02/06 09:50:00, 7.6, 1.1
2024/02/06 10:00:00, 7.5, 1.0
2024/02/06 10:10:00, 7.6, 1.9
2024/02/06 10:20:00, 7.6, 2.4
2024/02/06 10:30:00, 7.4, 2.0
2024/02/06 10:40:00, 7.4, 2.0
2024/02/06 10:50:00, 7.4, 2.5
2024/02/06 11:00:00, 7.3, 2.5
2024/02/06 11:10:00, 7.2, 2.7
2024/02/06 11:20:00, 7.2, 2.1
2024/02/06 11:30:00, 7.2, 2.5
2024/02/06 11:40:00, 7.1, 2.7
2024/02/06 11:50:00, 7.2, 2.4
2024/02/06 12:00:00, 7.0, 2.7
2024/02/06 12:10:00, 6.9, 3.1
2024/02/06 12:20:00, 6.9, 2.7
2024/02/06 12:30:00, 6.8, 2.9
2024/02/06 12:40:00, 6.9, 3.3
2024/02/06 12:50:00, 6.8, 3.6
2024/02/06 13:00:00, 6.5, 3.5
2024/02/06 13:10:00, 6.2, 3.3
2024/02/06 13:20:00, 6.2, 2.9
2024/02/06 13:30:00, 6.0, 2.9
2024/02/06 13:40:00, 5.9, 3.3
2024/02/06 13:50:00, 6.0, 2.7
2024/02/06 14:00:00, 5.8, 2.9
2024/02/06 14:10:00, 5.8, 2.7
2024/02/06 14:20:00, 5.6, 3.0
2024/02/06 14:30:00, 5.7, 3.0
2024/02/06 14:40:00, 5.8, 2.9
2024/02/06 14:50:00, 5.8, 2.7
